Regional Weather Roundup
Issued by NWS

Home | Current Version | Previous Version | Graphics & Text | Print | Product List | Glossary On
Versions: 1 2 3 4 5 6 7 8 9 10 11 12 13 14 15 16 17 18 19 20 21 22 23 24 25 26 27 28 29 30 31 32 33 34 35 36 37 38 39 40 41 42 43 44 45 46 47 48 49 50
000
ASUS43 KFSD 190910
RWRSD

WEATHER ROUNDUP FOR SOUTH DAKOTA
NATIONAL WEATHER SERVICE SIOUX FALLS SD
300 AM CST FRI JAN 19 2018

NOTE: "FAIR" INDICATES FEW OR NO CLOUDS BELOW 12,000 FEET WITH NO
SIGNIFICANT WEATHER AND/OR OBSTRUCTIONS TO VISIBILITY.


SDZ001>005-009-010-012>017-191000-
NORTHWEST AND NORTH CENTRAL SOUTH DAKOTA

CITY           SKY/WX    TMP DP  RH WIND       PRES   REMARKS
BUFFALO          N/A     43  28  55 CALM      29.50F
FAITH            N/A     40  28  62 W9        29.58F
MOBRIDGE       CLOUDY    30  24  78 SE7       29.55F WCI  23
$$

SDZ012>016-024>037-041>051-057-063-072>074-191000-
SOUTHWEST AND SOUTH CENTRAL SOUTH DAKOTA

CITY           SKY/WX    TMP DP  RH WIND       PRES   REMARKS
RAPID CTY ARPT CLOUDY    41  28  60 E5        29.61F
PIERRE         MOCLDY    24  23  96 CALM      29.60F
CUSTER         CLOUDY    45  21  38 W25G36    29.70F
ELLSWORTH AFB  CLOUDY    47  28  46 CALM      29.59F
PHILIP         MOCLDY    25  24  96 SW5       29.61F WCI  19
PINE RIDGE     CLOUDY    33  28  81 SW7       29.70F WCI  27
SPEARFISH        N/A     55  28  35 W23G33    29.57F
WINNER         FAIR      43  31  62 SW14      29.62F
$$

SDZ004>011-016>023-039-040-191000-
NORTHEAST SOUTH DAKOTA

CITY           SKY/WX    TMP DP  RH WIND       PRES   REMARKS
ABERDEEN       MOCLDY    27  25  92 S5        29.61F WCI  22
WATERTOWN      CLOUDY    28  26  92 S8        29.63F WCI  20
BROOKINGS      CLOUDY    28  26  92 SE8       29.66F WCI  20
SISSETON         N/A     43  27  53 W16G24    29.56F
$$

SDZ017-020-022-023-036>040-048>070-191000-
SOUTHEAST SOUTH DAKOTA

CITY           SKY/WX    TMP DP  RH WIND       PRES   REMARKS
SIOUX FALLS    CLOUDY    27  24  89 MISG      29.68F
HURON          PTCLDY    28  26  92 SE7       29.63F WCI  21
CHAMBERLAIN    CLOUDY    32  31  94 CALM      29.63R
MITCHELL       MOCLDY    32  28  85 S14       29.64F WCI  22
YANKTON        CLOUDY    29  25  85 E5        29.69F WCI  24
$$

ABBREVIATIONS USED IN REMARKS
   TC - TEMPERATURE IN CELSIUS
  WCI - WIND CHILL INDEX
   HX - HEAT INDEX
  VSB - VISIBILITY




USA.gov is the U.S. government's official web portal to all federal, state and local government web resources and services.